Notices

What's New in latest Release from April 7th, 2021:

- Updated Glossary, including Speed of Maximum Gust, and Total Hourly Precipitation

- Updated national and regional climate services offices contacts and prices information

- Addition of station inventory lists for 1981-2010, 1971-2000, and 1961-1990 Normals.

If you haven't already, please take our survey and provide feedback about our website: https://eccc.sondage-survey.ca/f/LanguageSelection.aspx?s=442ca660-fcf1-47c0-95a9-59707d6fd709

Hourly Data Report for November 07, 2006

TORONTO CITY
ONTARIO

43°40'00.000" N
79°24'00.000" W
112.50 m
6158355
71508
XTO

Download Data

Hourly Data (November 2006)
Hourly Data Report for November 7, 2006
TIME
LST
Temp Definition
°C
Dew Point Definition
°C
Rel Hum Definition
%
Precip. Amount Definition
mm

Wind Dir Definition
10's deg

Wind Spd Definition
km/h
Visibility Definition
km
Stn Press Definition
kPa
Hmdx Definition


Wind Chill Definition


Weather Definition


00:00 8.8 6.1 83   LegendMM LegendMM   100.77     LegendNANA
01:00 8.7 6.1 84   LegendMM LegendMM   100.74     LegendNANA
02:00 8.8 6.2 84   LegendMM LegendMM   100.73     LegendNANA
03:00 8.7 6.0 83   LegendMM LegendMM   100.70     LegendNANA
04:00 9.4 5.8 78   LegendMM LegendMM   100.68     LegendNANA
05:00 9.4 6.1 80   LegendMM LegendMM   100.65     LegendNANA
06:00 9.5 5.8 78   LegendMM LegendMM   100.60     LegendNANA
07:00 9.2 5.9 80   LegendMM LegendMM   100.55     LegendNANA
08:00 9.6 6.6 82   LegendMM LegendMM   100.55     LegendNANA
09:00 10.7 6.5 75   LegendMM LegendMM   100.52     LegendNANA
10:00 10.9 6.0 72   LegendMM LegendMM   100.52     LegendNANA
11:00 10.5 6.9 78   LegendMM LegendMM   100.51     LegendNANA
12:00 10.6 7.4 81   LegendMM LegendMM   100.40     LegendNANA
13:00 10.4 7.9 84   LegendMM LegendMM   100.29     LegendNANA
14:00 10.2 8.1 87   LegendMM LegendMM   100.20     LegendNANA
15:00 9.2 7.3 88   LegendMM LegendMM   100.21     LegendNANA
16:00 8.6 7.0 90   LegendMM LegendMM   100.16     LegendNANA
17:00 8.2 7.1 93   LegendMM LegendMM   100.13     LegendNANA
18:00 7.9 7.2 95   LegendMM LegendMM   100.12     LegendNANA
19:00 7.8 7.3 97   LegendMM LegendMM   100.06     LegendNANA
20:00 7.7 7.2 97   LegendMM LegendMM   99.98     LegendNANA
21:00 7.6 7.2 97   LegendMM LegendMM   99.94     LegendNANA
22:00 7.5 7.3 99   LegendMM LegendMM   99.86     LegendNANA
23:00 7.6 7.4 99   LegendMM LegendMM   99.78     LegendNANA

Notes on Data Quality.

Legend

  • E = Estimated
  • M = Missing
  • NA = Not Available*
  • [empty] = Indicates an unobserved value
Date modified: